Location: Lalanga
(4.5882°N, 32.9072°E)
Time: 13:34:58
(UTC+00:00)

OAO 3 Copernicus - Pass Details

Date: 24 January 2020
Orbit: 695 x 704 km, 35.0° (Epoch: 23 February)

Event Time Altitude Azimuth Distance (km) Brightness Sun altitude
Rises 16:46:08 0° 227° (SW) 3,063 8.9 -12.3°
Reaches altitude 10° 16:48:33 10° 224° (SW) 2,147 7.9 -12.9°
Maximum altitude 16:53:33 65° 142° (SE) 761 4.4 -14.0°
Enters shadow 16:56:38 23° 66° (ENE) 1,461 5.3 -14.8°
